Campo, CA

1:58 PM PDT on July 15, 2019 (GMT -0700)
Campo

Weather History for KCZZ - May, 2019

Change the Weather History Date:

Sunday, May 26, 2019

  Actual Average Record
Temperature  
Mean Temperature 51 °F 62 °F  
Max Temperature 53 °F 82 °F 99 °F (1974)
Min Temperature 49 °F 43 °F 29 °F (1972)
Degree Days  
Heating Degree Days 14 4  
Month to date heating degree days 258 139  
Since 1 July heating degree days 2976 2907  
Cooling Degree Days 0 1  
Month to date cooling degree days 0 21  
Year to date cooling degree days 2 24  
Moisture  
Dew Point 45 °F    
Average Humidity 84    
Maximum Humidity 93    
Minimum Humidity 74    
Precipitation  
Precipitation 0.01 in 0.00 in 0.08 in (1962)
Month to date precipitation 1.42 0.17  
Year to date precipitation 12.61 10.03  
Sea Level Pressure  
Sea Level Pressure 29.87 in    
Wind  
Wind Speed 11 mph (WSW)    
Max Wind Speed 21 mph    
Max Gust Speed 25 mph    
T = Trace of Precipitation, MM = Missing Value Source: NWS Daily Summary

Daily Weather History Graph

Daily Weather History Graph

Search for Another Location

Airport or City:

Astronomy

May. 26, 2019 Rise Set
Actual Time 5:41 AM PDT 7:44 PM PDT
Civil Twilight 5:13 AM PDT 8:12 PM PDT
Nautical Twilight 4:39 AM PDT 8:46 PM PDT
Astronomical Twilight 4:03 AM PDT 9:22 PM PDT
Moon 1:26 AM PDT (5/26) 12:34 PM PDT (5/26)
Length of Visible Light 14h 59m
Length of Day
14h 03m
Waning Gibbous, 49% of the Moon is Illuminated
May 26
Waning Gibbous
Jun 3
New
Jun 9
First Quarter
Jun 17
Full
Jun 25
Last Quarter

Hourly Weather History & Observations

Time (PDT) Temp. Dew Point Humidity Pressure Visibility Wind Dir Wind Speed Gust Speed Precip Events Conditions
1:52 AM 50.0 °F 45.0 °F 83% 29.79 in - West 8.1 mph - N/A   Unknown
2:52 AM 50.0 °F 45.0 °F 83% 29.79 in - SW 6.9 mph - N/A   Unknown
3:52 AM 50.0 °F 44.1 °F 80% 29.78 in - West 3.5 mph - N/A   Unknown
4:52 AM 50.0 °F 44.1 °F 80% 29.78 in - SW 9.2 mph - N/A   Unknown
5:52 AM 48.9 °F 45.0 °F 86% 29.80 in - WSW 8.1 mph - N/A   Unknown
6:52 AM 50.0 °F 43.0 °F 77% 29.82 in - SW 8.1 mph - N/A   Unknown
7:52 AM 50.0 °F 43.0 °F 77% 29.85 in - West 6.9 mph - N/A   Unknown
8:52 AM 51.1 °F 44.1 °F 77% 29.86 in - WSW 10.4 mph - N/A   Unknown
9:52 AM 51.1 °F 44.1 °F 77% 29.87 in - WSW 11.5 mph - N/A   Unknown
10:52 AM 52.0 °F 46.9 °F 83% 29.88 in - WSW 11.5 mph - N/A   Unknown
11:52 AM 52.0 °F 48.9 °F 89% 29.90 in - WSW 15.0 mph - N/A   Unknown
12:52 PM 52.0 °F 48.9 °F 89% 29.90 in - WSW 16.1 mph 21.9 mph 0.01 in   Unknown
1:52 PM 50.0 °F 46.9 °F 89% 29.91 in - SW 19.6 mph 24.2 mph N/A   Unknown
2:52 PM 50.0 °F 46.0 °F 86% 29.92 in - WSW 13.8 mph - N/A   Unknown
3:52 PM 50.0 °F 45.0 °F 83% 29.91 in - SW 12.7 mph - N/A   Unknown
4:52 PM 50.0 °F 46.9 °F 89% 29.90 in - WSW 12.7 mph 19.6 mph N/A   Unknown
5:52 PM 50.0 °F 44.1 °F 80% 29.90 in - WSW 10.4 mph - N/A   Unknown
6:52 PM 50.0 °F 44.1 °F 80% 29.89 in - WSW 8.1 mph - N/A   Unknown
7:52 PM 48.9 °F 43.0 °F 80% 29.88 in - SW 11.5 mph - N/A   Unknown
8:52 PM 48.0 °F 45.0 °F 89% 29.89 in - SW 16.1 mph - N/A   Unknown
9:52 PM 46.9 °F 45.0 °F 93% 29.90 in - SW 15.0 mph - N/A   Unknown
10:52 PM 46.9 °F 45.0 °F 93% 29.90 in - SW 12.7 mph - 0.01 in   Unknown
11:52 PM 48.0 °F 46.0 °F 93% 29.88 in - SW 20.7 mph - 0.02 in   Unknown